Location: Dob?e?
(49.9411°N, 15.1496°E)
Time: 17:31:43
(UTC+00:00)

X-37B - Pass Details

Date: 02 August 2021
Orbit: 381 x 393 km, 45.0° (Epoch: 29 August)

Event Time Altitude Azimuth Distance (km) Brightness Sun altitude
Exits shadow 02:35:52 - 196° (SSW) 1,573 3.2 -8.0°
Reaches altitude 10° 02:36:35 10° 187° (S) 1,393 3.0 -8.0°
Maximum altitude 02:38:17 14° 154° (SSE) 1,190 2.9 -7.7°
Drops below altitude 10° 02:39:59 10° 121° (ESE) 1,397 3.7 -7.5°
Sets 02:42:46 0° 94° (E) 2,254 5.3 -7.2°
